Regional Weather Roundup
Issued by NWS Sterling, VA

Home | Current Version | Previous Version | Text Only | Print | Product List | Glossary Off
Versions: 1 2 3 4 5 6 7 8 9 10 11 12 13 14 15 16 17 18 19 20 21 22 23 24 25 26 27

000
ASUS41 KLWX 220911
RWRLWX

REGIONAL WEATHER ROUNDUP
NATIONAL WEATHER SERVICE BALTIMORE MD/WASHINGTON DC
500 AM EDT SAT JUL 22 2017

Note: "FAIR" indicates few or no clouds below 12,000 feet
with no significant weather and/or obstructions to visibility.
 TC=TEMPERATURE CELSIUS

 * =Non NWS site. Station does not report precipitation (e.g. rain,
    snow, etc.), thunder, or fog.

DCZ001-MDZ009-015-VAZ040>042-051-053>054-221000-
WASHINGTON METRO

CITY           SKY/WX    TMP DP  RH WIND       PRES   REMARKS
WASHINGTON NAT CLOUDY    81  74  79 NW7       29.87F
DULLES         CLOUDY    77  69  76 NW3       29.89S
ANDREWS AFB    PTCLDY    80  73  78 NW5       29.86S
FT BELVOIR     CLOUDY    81  70  70 NW6       29.87S
QUANTICO       CLOUDY    79  73  82 CALM      29.88S
COLLEGE PARK*  PTCLDY    78  73  83 CALM      29.86F
LEESBURG*      CLEAR     77  73  88 NW3       29.90S
MANASSAS*      CLOUDY    72  71  97 CALM      29.89S
GAITHERSBURG*  CLEAR     75  71  87 NW3       29.90F

$$

MDZ006>007-011-014-221000-
BALTIMORE METRO

CITY           SKY/WX    TMP DP  RH WIND       PRES   REMARKS
BWI AIRPORT    PTCLDY    77  75  93 NW6       29.86S
MD SCIENCE CTR   N/A     84  74  71 MISG      29.86S HX  91
MARTIN STATE   PTCLDY    79  75  89 NW3       29.87S
ANNAPOLIS      CLEAR     78  78 100 W3        29.85R

$$

MDZ012-015-019>023-221000-
MARYLAND EASTERN SHORE

CITY           SKY/WX    TMP DP  RH WIND       PRES   REMARKS
OCEAN CITY     CLOUDY    81  76  84 NE7       29.87R
SALISBURY      NOT AVBL
BAY BRIDGE AP* CLEAR     81  75  83 N3        29.85S
CAMBRIDGE*     CLEAR     79  75  89 SW5       29.85S
EASTON*        CLOUDY    80  76  89 CALM      29.90R

$$

MDZ017>025-221000-
SOUTHERN MARYLAND

CITY           SKY/WX    TMP DP  RH WIND       PRES   REMARKS
PATUXENT RIVER CLEAR     78  74  87 W8        29.85S
ST INIGOES     CLEAR     80  74  81 W8        29.85S
LEONARDTOWN*   PTCLDY    75  70  83 W5        29.88S

$$

MDZ003>005-221000-
NORTH CENTRAL MARYLAND

CITY           SKY/WX    TMP DP  RH WIND       PRES   REMARKS
FREDERICK*     CLOUDY    73  73 100 CALM      29.91F FOG
HAGERSTOWN APT CLOUDY    74  71  91 CALM      29.92R
WESTMINSTER*   CLEAR     75  73  94 CALM      29.91S

$$

MDZ501>502-221000-
WESTERN MARYLAND

CITY           SKY/WX    TMP DP  RH WIND       PRES   REMARKS
OAKLAND*       CLOUDY    63  63 100 SW6       30.03R VSB 1/4
CUMBERLAND*    CLEAR     72  72 100 CALM      29.99R

$$

VAZ025>031-221000-
SHENANDOAH VALLEY

CITY           SKY/WX    TMP DP  RH WIND       PRES   REMARKS
WINCHESTER*    CLEAR     68  68 100 CALM      29.92S FOG
FRONT ROYAL*   CLOUDY    72  70  94 SW5       29.92S
LURAY*         PTCLDY    70  70 100 CALM      29.95S FOG
NEW MARKET*    PTCLDY    68  67  96 CALM      29.95S
STAUNTON*      MOCLDY    65  65  99 CALM      29.99S FOG
WAYNESBORO*    CLEAR     68  68 100 W5        29.98F

$$

WVZ021-048>050-054>055-221000-
EASTERN WEST VIRGINIA PANHANDLE

CITY           SKY/WX    TMP DP  RH WIND       PRES   REMARKS
MARTINSBURG    CLEAR     70  68  93 CALM      29.91S
PETERSBURG*    FOG       68  68  99 CALM      29.97S VSB 1/4

$$

VAZ036>039-050-221000-
CENTRAL FOOTHILLS

CITY           SKY/WX    TMP DP  RH WIND       PRES   REMARKS
CHARLOTTESVILL CLEAR     76  69  79 CALM      29.91S
CULPEPER*      CLEAR     71  71  99 CALM      29.90F FOG
ORANGE*        PTCLDY    70  68  94 CALM      29.90S
GORDONSVILLE*  PTCLDY    71  69  96 SW3       29.90F
WARRENTON*     PTCLDY    73  68  87 CALM      29.89S

$$

VAZ055>057-221000-
NORTH AND CENTRAL PIEDMONT

CITY           SKY/WX    TMP DP  RH WIND       PRES   REMARKS
FREDERICKSBRG* CLEAR     75  72  88 CALM      29.88R
STAFFORD*      MOCLDY    73  73  98 CALM      29.92S

$$

NCZ024-NYZ072-PAZ021-071-VAZ022-071-221000-
OTHER REGIONAL OBSERVATIONS

CITY           SKY/WX    TMP DP  RH WIND       PRES   REMARKS
NEW YORK CITY  CLEAR     80  67  64 VRB3      29.89S
PHILADELPHIA   PTCLDY    81  73  76 NW5       29.86S
PITTSBURGH     CLOUDY    74  72  93 S5        29.95S FOG
ROANOKE        CLEAR     74  69  85 N6        29.99F
RICHMOND       PTCLDY    75  71  87 S5        29.89F
RALEIGH        PTCLDY    76  72  87 SW7       29.96S

$$

ANZ530>537-221000-
MARINE OBSERVATIONS

STATION/POSITION TIME  TEMP    WIND        PRES
                       AIR SEA DIR/SP/G
                 (UTC) (F)     (DEG/KT/KT) (MB)
THOMAS PT LIGHT  0900   83 83  360/  7/  7   N/A
BALT KEY BRIDGE  0848   83      10/  5/  6 1010.6F
COVE POINT       0848   79     270/  5/  7 1011.4S
LEWISETTA        0848   79 86  280/ 10/ 11 1011.1S
SOLOMONS ISLAND  0848   80 85  270/  4/  6   N/A
PINEY POINT      0848          290/ 12/ 13   N/A

$$





USA.gov is the U.S. government's official web portal to all federal, state and local government web resources and services.